Location: A�t �Alizem
(31.2076°N, 8.7872°W)
Time: 12:42:07
(UTC+00:00)

Envisat - Pass Details

Date: 05 October 2021
Orbit: 764 x 766 km, 98.2° (Epoch: 20 October)

Event Time Altitude Azimuth Distance (km) Brightness Sun altitude
Rises 04:29:56 0° 35° (NE) 3,231 6.9 -26.7°
Reaches altitude 10° 04:33:08 10° 56° (NE) 2,300 6.3 -26.0°
Maximum altitude 04:36:14 16° 94° (E) 1,896 5.9 -25.4°
Drops below altitude 10° 04:39:20 10° 132° (SE) 2,292 5.9 -24.7°
Sets 04:42:29 0° 153° (SSE) 3,213 6.4 -24.0°
